Theta_e
315 314 315 318 320 321 320 321 320 319 319 315 315 316 315 316 316 317 318 318 318 318 317 317 317 316 317 318 319 319 318 318 320 319 319 320 319 318 319 318 317 318 318 322 327 329 332 334 335 336 337 338 340 340 339 339 338 337 335 332 331 331 330 329 328 323 317 317 318 318 318 319 320 320 323 326 328 329 329 329 329 330 331 331 331 331 332 332 330 328 326 325 323 321 320 320 320
318 316 317 320 320 323 323 321 320 317 316 314 314 316 314 315 316 317 318 318 318 317 316 316 317 316 317 318 318 318 319 318 319 319 319 319 319 317 316 318 317 318 318 321 325 328 331 333 333 334 336 338 339 339 339 338 337 336 334 332 331 332 330 327 325 318 316 318 318 319 319 321 322 322 324 326 326 327 328 326 326 328 328 328 329 330 330 328 327 325 323 321 318 316 314 315 316
319 318 318 320 321 322 322 321 318 315 314 313 314 316 315 316 316 317 317 317 317 315 316 317 317 317 318 319 319 319 320 319 319 319 319 319 320 317 315 317 317 318 318 320 323 326 329 331 332 332 334 337 338 338 338 337 337 335 334 334 333 333 328 324 321 316 317 319 318 320 322 325 325 326 328 328 328 327 328 326 325 327 326 327 328 327 324 323 322 321 318 316 314 312 311 311 311
318 319 319 320 322 321 322 321 318 315 313 313 314 315 316 316 316 317 317 316 316 316 316 317 318 318 318 319 319 319 320 320 319 319 320 319 318 316 315 316 317 318 318 319 321 324 327 329 330 331 332 334 335 336 336 336 336 334 334 334 333 333 328 322 319 317 318 319 320 325 327 329 329 330 332 332 330 329 329 328 327 328 328 328 327 324 322 321 320 318 315 314 312 311 310 310 310
318 319 319 320 323 322 322 320 319 316 314 315 314 316 317 316 316 317 316 315 316 317 317 317 318 318 318 318 318 320 320 320 320 319 320 318 316 315 315 315 316 317 318 319 320 323 325 327 329 329 330 331 333 335 334 335 335 333 333 334 334 333 329 321 318 319 319 320 324 328 330 331 331 331 332 332 331 330 329 327 327 328 328 327 325 323 321 319 316 314 313 312 311 310 310 309 310
318 319 319 319 321 320 321 319 317 317 316 317 316 316 317 316 316 316 316 316 316 317 317 317 318 318 318 317 317 319 319 319 319 319 319 319 317 315 315 315 315 316 318 319 319 321 324 326 328 328 329 329 332 335 334 334 334 333 333 334 333 333 330 322 317 320 319 322 329 329 329 329 329 330 332 332 331 329 327 324 324 325 325 324 322 319 317 315 313 311 310 310 310 310 309 309 309
318 319 319 320 321 320 321 318 317 318 317 317 317 317 317 317 314 314 317 317 317 317 316 317 317 318 317 316 316 318 318 318 318 319 318 319 318 315 315 315 315 315 316 318 319 320 322 325 327 328 329 329 330 334 334 334 335 334 333 332 332 332 330 324 318 319 319 324 330 328 328 329 327 328 331 332 330 327 324 322 321 321 321 321 319 317 315 314 313 310 310 310 310 309 308 308 307
316 318 320 322 322 322 321 318 319 319 317 315 317 317 316 316 314 315 318 317 316 316 316 316 317 317 316 315 317 317 317 318 318 318 318 319 318 315 315 315 315 315 315 317 318 319 321 323 326 328 329 330 329 332 333 334 335 334 333 331 331 331 330 327 319 317 319 325 329 328 327 328 327 327 330 332 330 327 324 323 323 321 320 320 319 318 317 315 312 310 309 309 309 308 307 306 304
315 317 320 322 321 321 319 319 319 318 317 316 316 316 315 315 314 315 317 317 316 315 316 315 316 317 316 316 317 317 317 317 317 317 318 319 318 315 315 315 315 315 315 315 317 318 319 322 324 327 329 330 330 331 333 333 334 334 333 330 330 329 330 329 323 318 318 325 328 328 327 327 328 327 328 331 331 329 326 325 325 324 322 321 321 320 319 316 312 309 309 309 308 307 305 304 303
315 317 320 322 320 319 317 318 318 317 316 316 316 316 315 314 313 315 316 316 315 315 315 315 316 316 316 317 317 317 316 315 315 316 316 318 317 315 315 315 315 315 315 315 316 317 318 320 323 326 328 330 330 331 332 333 333 334 332 330 330 328 328 329 326 321 318 323 326 327 327 327 328 328 328 330 332 331 329 329 329 327 325 323 323 323 322 317 312 308 308 308 306 305 303 303 303
317 317 318 319 317 316 316 317 317 317 316 315 315 314 314 313 313 315 315 316 314 314 315 315 317 317 316 317 317 316 315 314 314 315 315 316 316 315 315 315 315 315 315 315 315 316 317 319 321 324 327 329 330 331 332 332 332 333 332 331 330 328 327 327 328 326 319 320 324 326 327 326 328 328 329 329 330 331 330 330 330 329 328 326 325 325 324 318 313 309 307 307 305 304 303 303 303
318 318 317 317 315 316 316 316 317 317 316 316 315 314 313 312 314 315 315 316 315 315 316 316 316 316 317 317 316 315 314 314 314 314 314 315 315 316 315 315 315 315 316 315 315 315 315 317 319 322 325 327 329 330 331 331 332 332 333 331 330 328 327 327 327 327 322 320 322 325 327 329 329 329 330 329 329 330 330 330 330 330 330 329 327 326 324 320 315 311 308 306 304 303 303 303 303
318 318 317 316 316 316 316 316 316 317 317 315 315 314 313 313 315 315 315 316 315 316 315 315 315 315 317 316 315 315 314 314 314 314 314 314 315 315 315 315 315 315 316 315 315 314 314 315 317 319 321 324 327 329 330 330 331 333 333 332 332 329 328 327 327 326 325 322 321 323 326 328 329 329 330 330 329 328 329 330 330 330 330 329 328 326 325 322 317 313 309 306 304 303 303 303 303
317 317 317 316 315 316 315 316 316 317 316 315 314 313 313 313 314 314 314 316 315 316 315 314 314 315 316 316 316 315 314 314 314 314 314 314 314 315 315 315 315 315 315 315 315 315 314 314 315 316 318 322 324 327 331 330 330 332 332 332 332 330 328 328 327 327 326 324 322 322 324 327 328 328 329 330 328 327 328 330 329 329 329 328 327 326 325 323 319 315 311 307 304 303 303 303 303
315 315 318 317 315 316 316 317 317 317 316 315 313 313 314 313 314 313 314 315 315 315 314 314 314 315 315 315 316 314 314 314 314 314 314 314 314 314 315 315 316 315 315 315 315 315 315 314 314 315 316 318 320 325 330 330 331 332 332 332 332 331 330 329 328 328 327 326 325 323 323 324 327 329 330 330 329 328 328 329 328 327 327 327 326 325 324 322 319 316 314 309 305 304 303 303 303
313 314 318 316 315 315 315 316 317 317 316 314 313 313 314 314 314 314 314 314 315 315 314 315 314 314 315 314 314 313 314 314 313 314 314 314 314 314 314 315 315 316 316 315 315 315 315 315 315 314 315 315 317 320 325 330 331 331 332 332 331 331 331 330 330 329 328 328 327 327 325 323 325 328 329 331 331 330 329 328 328 327 327 326 325 324 323 321 318 317 316 311 308 305 303 303 303
314 315 317 314 314 314 315 316 316 316 315 315 313 313 315 315 314 314 314 314 314 314 314 314 314 313 313 313 313 313 313 313 314 314 314 314 314 314 314 314 315 315 316 316 315 315 315 316 315 315 315 315 316 317 320 325 329 331 331 331 331 331 331 331 331 329 329 328 329 329 327 325 326 327 328 329 330 331 330 329 328 328 327 326 326 324 323 321 319 318 317 314 311 307 304 303 303
316 317 316 314 314 314 314 316 316 315 315 315 314 313 314 315 314 314 314 314 314 314 314 314 314 313 313 313 313 313 313 313 313 314 314 314 314 314 314 314 314 315 315 316 315 315 315 315 316 316 316 315 315 316 317 320 325 328 330 331 332 332 331 331 331 329 329 329 329 329 328 327 326 327 328 328 329 330 331 330 329 329 328 327 326 324 324 323 321 320 319 316 313 311 306 304 303
316 316 315 314 315 314 313 315 315 314 315 315 315 313 313 314 314 313 314 315 314 314 315 314 314 313 312 313 313 313 313 313 314 314 314 314 314 314 314 314 314 314 315 315 315 316 315 315 316 316 316 316 316 316 317 316 321 326 329 331 332 332 332 332 332 330 330 330 330 329 328 328 327 327 327 327 328 329 330 329 329 328 327 327 326 325 325 324 323 321 320 318 316 314 310 306 303
316 316 316 315 315 314 313 314 314 314 314 315 315 313 312 313 313 313 314 315 315 315 315 314 314 312 312 313 312 313 313 314 314 314 315 314 314 314 314 314 314 314 314 314 315 315 315 315 315 316 316 316 316 316 317 316 319 326 328 329 330 332 333 332 333 332 331 330 330 329 328 328 327 328 327 326 326 327 328 327 328 329 327 326 326 325 325 324 323 322 321 319 318 318 314 309 306
317 316 315 316 314 314 314 313 314 314 313 314 314 312 313 313 312 312 313 314 316 315 313 312 312 311 311 312 312 313 313 314 314 314 315 315 315 315 315 315 315 314 314 314 314 314 315 315 315 316 316 316 317 316 318 317 319 325 327 327 329 334 335 332 332 333 332 331 330 330 329 328 327 328 328 326 326 326 327 326 328 330 327 325 325 325 325 324 323 321 321 320 319 319 317 313 309
316 315 315 316 313 315 315 314 314 314 313 313 312 313 313 312 311 312 312 314 315 312 310 310 310 310 311 312 312 313 313 314 314 314 314 314 315 315 315 315 315 315 315 314 313 314 314 315 315 315 316 316 316 316 317 318 319 323 324 325 326 330 332 330 332 332 331 332 332 330 328 328 328 329 329 328 327 326 326 326 326 325 325 325 324 324 324 323 323 322 321 321 320 319 317 316 313
315 315 314 314 314 315 315 314 314 313 312 313 313 313 312 312 312 311 311 313 312 310 310 310 310 310 311 312 313 313 314 314 314 314 314 314 314 314 315 315 315 315 315 315 314 313 313 314 314 315 315 315 316 316 317 318 320 322 324 327 327 329 328 327 333 333 331 333 331 329 329 327 328 329 329 329 328 326 326 326 325 325 326 326 324 324 324 323 324 323 322 323 323 320 318 316 316
315 315 314 314 313 314 314 313 313 312 312 312 312 311 311 313 312 311 311 310 309 309 309 309 310 311 311 312 312 313 314 314 314 314 314 314 314 314 314 314 314 314 314 315 314 314 313 313 313 314 314 315 316 316 317 317 319 321 324 326 327 327 326 326 329 329 330 333 331 331 331 328 327 327 327 327 326 326 326 326 327 329 328 326 326 326 325 325 325 323 323 324 325 322 320 317 316
314 314 314 313 312 313 313 312 312 312 312 312 311 311 312 312 311 311 310 309 308 309 309 310 310 311 311 312 312 313 313 313 313 313 313 313 313 313 313 313 314 314 314 314 314 314 314 313 313 313 314 314 315 316 317 317 319 323 322 324 330 330 329 330 328 327 329 329 330 333 333 331 329 327 327 327 326 327 326 325 326 328 326 325 327 327 326 326 326 324 324 325 324 322 321 318 317
314 314 313 313 312 312 312 312 312 312 312 311 311 313 312 310 311 311 308 308 308 308 309 310 310 311 311 312 311 311 311 312 312 312 312 312 313 313 313 313 314 314 314 314 314 314 314 314 313 313 313 314 316 316 316 317 323 327 324 326 334 335 334 333 328 327 327 326 329 332 332 332 332 329 328 327 327 327 326 325 325 324 324 326 329 328 327 326 326 325 324 324 323 321 321 319 318
312 312 312 312 313 312 312 312 312 311 312 311 312 314 311 309 312 312 308 307 308 308 310 310 310 311 311 311 310 310 310 311 311 312 312 312 312 313 313 313 314 315 315 315 314 314 314 313 313 313 313 313 315 316 317 320 323 326 324 326 329 331 333 333 328 326 326 326 327 328 328 331 333 331 329 328 328 330 329 327 325 323 323 326 327 327 326 327 326 324 323 323 322 322 321 319 319
311 312 312 313 313 313 313 312 311 311 312 310 311 312 311 310 312 311 308 307 308 309 310 310 311 311 310 310 310 310 310 310 311 311 312 312 312 312 313 313 314 315 315 315 315 314 314 313 313 313 313 314 315 316 320 324 327 327 325 328 329 327 329 331 331 329 329 329 326 326 326 328 332 332 330 331 330 330 331 330 328 327 326 326 327 327 327 328 325 323 323 322 322 321 321 320 319
312 312 314 314 314 315 313 311 310 311 312 311 310 312 312 311 311 310 308 307 308 310 310 310 310 310 309 309 309 309 310 310 311 311 311 311 312 312 312 313 314 315 315 316 316 316 315 314 314 314 314 315 315 318 321 323 331 333 327 327 329 326 326 330 333 331 331 331 327 328 328 325 329 331 330 331 329 329 330 331 329 329 329 327 327 328 328 327 325 325 324 322 322 321 320 320 319
313 312 312 315 316 316 312 310 311 311 312 310 311 315 315 311 310 310 310 309 309 310 310 310 310 309 309 309 309 309 309 310 310 311 311 311 311 312 312 312 313 314 315 316 317 316 316 315 315 316 317 317 317 319 320 320 327 335 330 327 330 328 326 328 331 331 329 330 328 329 328 323 325 328 329 330 329 328 328 329 329 328 328 328 328 327 327 327 327 327 325 322 323 322 320 320 319
313 312 312 314 317 316 313 311 311 313 312 310 311 316 316 311 309 309 310 310 310 310 309 308 309 308 308 308 308 309 309 310 310 310 311 311 311 311 312 312 312 313 314 315 315 316 317 317 316 318 320 322 324 322 323 323 323 328 330 329 331 329 326 324 326 327 327 327 327 326 325 323 324 326 329 330 329 328 326 327 327 325 325 325 325 324 324 326 326 325 323 322 322 321 321 322 320
312 314 316 316 316 316 315 310 310 313 311 310 312 317 317 312 309 309 309 310 310 309 308 307 307 307 308 308 308 308 309 309 310 310 310 310 311 311 311 312 312 312 313 314 315 316 317 318 317 318 320 323 326 323 325 329 325 325 328 326 325 325 323 322 323 324 325 325 325 324 323 323 324 325 327 328 329 328 326 326 325 324 325 324 324 323 323 324 324 323 322 322 322 321 321 322 321
313 314 317 317 316 316 316 311 309 311 311 312 313 316 318 313 309 309 309 309 309 309 307 306 306 306 306 307 307 307 308 309 309 309 310 310 310 311 311 311 311 312 313 314 315 316 317 318 319 319 320 321 323 323 325 330 328 328 328 324 323 323 323 324 323 324 324 324 324 324 324 324 325 325 325 326 327 326 326 326 326 325 326 325 325 324 323 324 323 323 323 322 322 322 322 322 321
316 315 316 316 315 315 315 314 311 310 312 313 312 313 316 313 309 308 308 308 309 308 307 305 305 305 305 306 306 307 307 308 309 309 309 310 310 310 311 311 311 312 313 314 314 315 317 319 320 320 321 321 322 323 324 327 328 328 326 324 323 324 324 325 324 324 324 324 324 324 324 324 324 324 324 325 325 325 325 325 325 325 324 324 323 323 323 323 323 322 322 321 320 320 320 320 320
317 316 316 315 314 313 314 315 312 311 312 314 313 313 315 314 311 308 307 307 308 308 306 305 304 304 304 305 305 306 307 308 308 309 309 309 310 310 310 311 311 312 313 314 315 316 318 319 320 321 322 322 322 322 322 324 325 324 323 323 323 323 323 323 323 323 323 323 323 322 322 322 322 322 322 322 322 323 323 323 324 324 324 323 322 322 322 321 321 320 319 319 318 318 317 316 316
317 316 316 316 315 314 314 314 311 311 313 314 314 314 315 316 313 309 307 306 307 307 305 305 304 303 303 303 304 305 306 307 308 308 309 309 309 309 310 310 311 313 314 315 316 316 317 318 319 320 321 322 323 323 322 323 323 323 322 321 321 321 320 320 321 321 321 321 320 320 320 320 320 320 320 319 319 319 320 321 321 321 321 321 321 321 320 319 318 317 317 316 316 315 314 314 313
314 315 315 315 316 315 315 313 310 310 312 314 314 314 314 315 313 309 307 307 307 306 306 305 304 303 302 302 303 304 305 306 307 308 308 308 308 309 309 310 311 313 315 316 316 316 316 317 318 319 319 319 320 320 320 321 321 321 321 320 319 319 319 319 319 319 319 318 317 316 316 315 315 314 314 315 315 315 315 316 316 316 316 316 316 315 314 313 312 311 311 310 310 310 309 309 309
313 314 315 315 315 315 314 312 310 309 312 314 313 312 313 314 312 308 307 307 307 306 306 304 303 302 302 301 302 303 305 306 306 307 307 307 308 309 309 310 312 313 315 316 316 316 316 317 318 318 318 317 317 317 318 319 319 318 318 318 318 317 317 317 315 314 313 312 311 311 310 309 308 308 308 308 308 309 308 309 309 308 308 308 308 307 307 306 306 306 306 305 305 305 305 306 306
312 313 314 315 315 315 314 312 309 309 311 314 313 312 314 313 309 307 306 306 305 303 303 303 302 302 301 301 301 302 304 305 305 306 306 307 308 309 309 310 310 312 313 314 315 316 316 317 317 317 317 316 316 316 316 316 316 315 314 314 315 314 313 311 309 308 307 307 307 307 306 306 306 306 305 305 305 305 305 305 305 305 305 305 305 305 304 305 305 305 304 304 304 304 304 304 304
313 313 314 316 315 315 317 313 309 309 310 312 312 312 315 313 307 305 305 304 303 301 301 301 301 301 301 301 302 302 303 303 304 305 306 306 307 307 308 308 308 309 309 310 311 312 312 312 312 312 312 312 312 311 311 310 310 310 310 310 310 309 308 307 306 306 305 305 306 305 305 305 305 305 305 305 305 305 305 305 304 304 304 304 304 304 304 304 304 303 303 303 302 302 302 302 302
314 314 314 317 315 315 317 314 311 310 310 310 311 314 317 314 310 308 304 302 303 301 301 301 300 300 301 301 302 302 302 303 304 305 305 305 305 306 306 306 306 307 307 307 307 307 307 307 307 307 307 307 307 307 307 307 307 307 307 307 306 306 306 305 305 305 305 305 305 305 304 304 304 304 304 303 303 303 303 303 303 303 303 302 302 302 302 301 301 301 300 300 300 299 299 299 299
316 315 314 315 315 315 315 313 312 314 315 311 311 317 319 314 312 310 305 304 303 302 302 302 301 300 300 300 300 301 302 303 303 304 304 304 305 305 305 305 305 306 306 306 306 306 306 306 306 306 306 306 306 306 306 306 306 306 306 306 306 306 305 305 304 304 304 303 303 303 303 302 302 302 302 302 301 301 301 300 300 300 300 300 299 299 299 298 298 297 297 297 296 296 296 296 296
318 316 314 313 314 315 314 313 313 317 318 312 309 317 319 316 315 311 306 305 304 303 303 302 301 300 300 300 300 300 301 302 303 304 304 304 304 305 305 305 305 305 305 305 305 305 305 305 305 305 305 305 305 305 305 305 305 305 305 305 305 305 304 304 303 303 302 302 301 301 301 300 300 299 299 299 299 298 298 298 297 297 297 297 297 296 296 296 295 295 295 294 294 294 294 293 293
318 315 313 313 313 314 314 313 315 316 316 313 311 314 317 318 316 309 306 307 305 303 303 302 302 301 300 300 300 300 301 302 303 303 304 304 304 304 304 304 304 304 304 304 304 304 304 304 304 304 304 304 304 304 304 304 304 304 304 304 303 303 303 303 302 301 300 299 299 299 299 298 298 297 297 296 296 296 296 296 295 295 295 295 295 295 295 294 294 294 293 293 293 293 293 292 292
316 311 310 311 312 313 313 313 315 314 314 316 315 313 315 319 315 308 306 308 307 305 304 303 302 301 301 300 300 300 301 302 303 303 303 303 303 303 303 303 303 303 303 303 303 303 303 303 303 303 303 303 303 303 303 303 303 303 303 302 302 302 302 301 300 299 298 297 297 297 296 296 296 295 295 295 295 295 295 295 294 294 294 294 294 294 294 293 293 293 293 293 292 292 292 291 291
312 308 309 310 310 311 312 313 314 312 314 319 317 314 316 319 317 312 308 309 310 307 305 304 303 302 301 300 300 301 301 302 302 302 302 303 303 303 303 303 303 303 303 303 303 303 303 303 303 303 303 303 303 302 302 302 302 302 301 301 301 300 300 299 297 296 295 295 296 295 295 295 295 295 295 295 295 295 294 294 294 294 294 293 293 293 293 293 292 292 292 292 291 291 291 291 290
308 310 311 311 311 310 311 312 312 314 317 317 315 314 315 318 319 316 312 310 310 308 305 304 303 302 301 300 300 300 301 301 302 302 302 302 302 302 302 302 302 302 302 302 302 302 302 302 302 302 302 302 302 302 302 301 301 300 300 299 299 298 297 296 296 295 294 294 295 295 294 294 294 294 294 294 294 294 293 293 293 293 292 292 292 292 292 292 291 291 291 291 291 290 290 290 290
309 313 313 314 313 312 312 312 312 317 320 314 309 310 313 316 318 315 312 308 307 308 306 303 303 303 301 300 300 300 301 301 301 301 301 301 302 302 302 302 302 302 302 301 302 302 302 301 301 301 301 301 301 300 300 299 299 298 298 297 297 295 295 295 295 294 294 294 294 294 294 294 293 293 293 293 293 293 292 292 291 291 291 291 291 291 290 290 290 290 290 290 290 290 290 290 290
310 312 313 317 317 315 316 316 314 318 317 310 307 309 312 315 316 313 310 307 306 307 306 304 304 303 302 301 300 300 301 301 301 301 301 301 301 301 301 301 301 301 301 301 301 301 301 301 300 300 300 299 299 298 298 297 297 296 296 295 295 294 294 294 294 294 294 294 293 293 293 293 292 292 292 292 292 291 291 291 290 290 290 290 290 289 289 289 289 289 289 289 289 289 289 289 289
311 314 315 319 319 318 320 317 315 317 314 307 306 310 313 315 314 311 308 306 304 304 305 305 304 303 302 301 300 301 301 301 301 301 301 301 301 301 301 301 301 300 301 300 300 300 300 300 299 299 299 298 297 297 296 296 296 295 295 295 294 294 294 294 294 294 293 293 293 292 292 292 291 291 291 291 290 290 290 290 289 289 289 289 289 289 289 289 289 288 288 288 288 288 288 288 288
312 313 315 316 317 319 321 318 317 317 313 308 307 310 315 316 312 305 303 302 301 301 302 303 304 303 302 301 300 301 300 301 300 300 300 300 300 300 300 300 300 300 300 300 300 300 299 299 298 298 298 297 296 296 296 296 296 295 295 294 294 294 294 294 294 293 293 293 292 292 291 291 291 290 290 290 289 289 289 289 289 289 289 288 288 288 288 288 288 288 288 288 288 288 288 288 288
311 310 313 315 315 316 314 313 313 313 313 311 310 312 314 312 306 301 301 302 300 301 301 301 303 302 302 301 300 300 300 300 300 300 300 300 300 300 300 300 300 300 300 299 299 299 298 298 297 297 297 296 295 295 295 295 295 294 294 294 294 294 293 293 293 293 292 292 291 291 290 290 290 290 289 289 289 289 289 288 288 288 288 288 288 288 288 288 288 288 288 288 288 288 288 288 288
311 310 313 313 312 313 312 310 308 309 315 316 312 313 313 310 308 303 301 303 302 301 301 302 302 302 301 300 300 300 300 300 300 299 300 300 300 300 300 300 299 299 299 299 298 298 297 297 296 296 296 295 294 294 294 294 294 294 294 293 293 293 293 293 292 292 291 291 290 290 290 289 289 289 289 288 288 288 288 288 288 288 288 287 288 288 288 288 288 288 288 288 288 288 287 287 287
311 312 314 312 310 312 313 315 313 312 317 316 312 314 314 314 313 306 302 304 304 302 302 302 302 301 301 300 300 300 300 300 300 299 299 300 300 299 299 299 299 299 298 298 298 297 296 295 295 295 295 294 294 293 293 293 293 293 293 293 293 293 292 292 292 291 291 290 290 289 289 289 288 288 288 288 287 287 287 287 287 287 287 287 287 287 287 287 287 287 287 287 287 287 287 287 287
309 311 311 311 314 314 313 315 316 316 317 315 312 312 312 314 314 309 307 307 306 304 302 301 302 301 301 301 301 300 300 300 299 299 299 299 299 299 299 299 299 298 298 297 297 295 295 294 293 293 293 293 293 293 293 293 293 293 293 292 292 292 292 291 291 291 290 290 289 289 289 288 288 288 288 287 287 287 287 287 287 287 287 287 287 287 287 287 287 287 287 287 287 287 287 287 287
307 308 309 310 312 314 313 313 314 316 316 315 313 312 312 314 314 312 312 310 308 305 302 302 303 302 301 301 301 301 300 299 299 299 299 299 299 299 299 299 298 298 297 297 296 295 294 293 293 292 292 292 292 292 293 293 292 292 292 292 292 291 291 291 291 290 290 289 289 289 288 288 288 288 288 287 287 287 287 287 287 287 287 287 287 287 287 287 287 287 287 287 287 287 287 287 287
309 310 311 310 310 310 312 312 311 313 315 315 315 315 314 312 311 312 312 310 308 307 304 304 304 302 302 302 301 301 300 300 300 300 300 299 299 299 299 299 298 297 297 296 295 294 293 292 292 292 292 292 292 292 292 292 292 292 292 292 291 291 291 290 290 289 289 289 289 289 288 288 288 288 288 287 287 287 287 287 287 287 287 287 287 287 287 287 287 287 287 287 287 287 286 286 286
311 312 312 312 312 311 313 314 311 310 313 314 314 315 315 310 305 307 307 306 307 307 306 305 304 303 302 302 302 301 300 300 300 300 300 300 299 299 299 298 298 297 297 296 294 293 292 291 291 291 291 291 292 292 292 292 292 292 291 291 291 290 290 290 289 289 289 289 289 289 288 288 288 288 288 287 287 287 286 286 286 286 287 287 287 287 287 286 286 286 286 286 286 286 286 285 285
Wind_Speed
6 5 4 3 4 3 3 1 1 3 1 4 3 1 3 2 2 2 1 1 0 2 2 3 2 3 3 4 5 7 5 4 5 4 3 3 4 5 5 4 3 3 2 8 12 15 16 16 15 15 14 14 14 13 12 10 9 8 6 5 4 3 3 1 4 7 7 7 7 7 6 6 5 5 5 6 4 2 2 2 1 1 1 2 3 4 3 3 3 4 5 6 6 6 6 6 5
7 6 4 4 4 2 1 3 0 3 2 5 3 2 3 1 1 2 3 3 3 3 4 4 3 6 6 7 7 6 3 3 4 4 3 2 4 6 5 4 3 2 2 7 11 14 16 16 15 14 14 14 13 13 12 11 9 8 6 5 4 3 3 1 5 7 7 6 6 7 6 6 6 6 5 5 4 3 2 2 2 1 1 3 4 4 3 3 4 5 6 7 7 6 7 7 6
7 5 4 3 4 3 2 2 1 3 3 4 3 2 1 1 3 4 4 4 4 5 5 2 3 4 6 5 4 3 2 2 3 2 2 2 3 5 6 5 3 2 2 5 9 12 15 16 15 14 13 13 13 12 12 11 9 8 6 5 4 3 2 2 6 7 6 6 6 7 7 7 7 6 5 4 4 4 3 2 1 1 2 3 3 3 3 4 5 6 7 8 8 8 7 7 7
6 5 3 3 2 2 1 1 1 1 2 3 4 3 0 2 5 4 4 5 5 3 1 1 2 2 4 3 2 2 3 4 4 3 2 3 2 4 6 5 4 3 2 4 7 10 13 15 15 14 13 13 13 11 10 10 9 8 6 5 4 3 2 3 6 7 6 6 6 6 6 7 7 6 5 4 4 4 3 3 2 2 2 2 2 3 5 6 7 8 8 9 9 9 7 6 6
7 7 3 3 1 1 1 1 1 0 3 2 3 4 1 2 3 4 5 5 3 1 1 3 2 0 3 3 3 2 4 3 4 3 2 3 2 3 5 5 5 3 3 4 6 9 11 12 14 14 13 13 12 11 10 9 10 8 6 6 4 4 3 3 6 6 6 6 5 5 6 5 5 4 4 3 4 4 4 3 3 2 2 2 3 5 7 8 9 9 9 9 9 9 7 6 5
7 7 6 5 3 2 1 2 2 2 4 2 3 5 3 3 3 5 4 2 3 2 3 3 2 2 2 2 3 2 5 3 3 3 2 3 2 2 4 5 5 4 3 3 5 8 10 11 13 14 14 13 13 12 10 10 10 8 6 6 4 4 4 4 6 5 4 5 4 4 5 4 3 2 1 3 3 3 3 2 2 1 2 4 5 6 7 9 10 10 9 8 8 8 7 5 4
6 5 4 5 4 2 1 2 3 4 3 3 3 4 3 4 4 5 2 2 2 2 3 4 4 4 0 3 3 2 4 3 4 3 2 2 1 1 3 5 5 5 3 3 4 7 9 10 12 14 14 14 14 13 11 10 10 9 7 6 5 4 4 5 6 5 4 4 4 3 3 2 2 1 2 3 3 3 1 1 2 3 3 4 5 6 7 9 11 11 10 8 7 7 5 4 2
6 3 1 1 2 2 1 3 3 2 2 1 3 2 4 4 4 4 2 2 2 3 4 4 5 3 3 6 3 3 5 4 4 4 3 2 2 1 3 5 5 5 3 3 4 6 8 10 12 13 14 15 15 14 12 11 11 10 8 7 6 5 5 5 6 5 4 5 4 2 2 0 1 1 2 3 2 2 2 1 2 4 4 4 5 6 7 10 11 11 9 6 5 4 3 3 2
6 4 2 1 1 1 2 2 2 1 1 1 2 2 3 4 2 2 2 1 2 3 4 4 3 3 5 5 1 5 7 8 8 7 4 0 3 2 3 4 5 5 3 2 4 5 7 10 12 13 14 15 15 15 13 12 11 11 9 8 7 6 6 5 6 6 6 6 4 3 2 1 2 2 3 4 3 3 4 3 4 5 5 5 6 7 8 10 10 8 6 5 3 2 2 2 2
5 5 2 1 1 2 3 2 2 2 2 1 1 2 2 2 2 3 3 1 3 3 3 3 1 3 6 2 2 5 8 10 9 9 8 4 1 3 3 3 4 4 3 2 3 5 6 8 11 13 14 15 15 15 14 13 12 11 10 9 8 7 7 7 6 6 6 6 5 4 3 3 3 3 3 4 4 5 5 5 6 7 7 7 7 8 9 10 10 7 5 3 2 1 1 2 2
3 4 2 1 1 2 2 2 2 2 2 1 1 2 2 1 2 2 3 2 3 3 3 3 1 3 6 1 3 4 7 9 7 7 6 5 2 2 3 2 2 2 2 1 3 5 6 8 10 12 14 15 15 15 15 15 14 13 12 11 9 8 8 8 8 7 7 7 6 4 4 4 4 4 4 4 5 5 6 7 8 8 9 9 9 9 9 10 10 8 5 2 1 1 1 1 1
1 2 1 1 1 1 1 2 3 3 3 2 4 4 4 2 1 1 3 3 3 2 1 4 3 4 4 0 2 3 4 9 8 6 3 3 2 2 3 3 2 2 1 1 2 4 5 7 9 11 13 14 15 15 16 16 15 14 13 12 11 10 9 9 9 9 8 9 8 6 6 7 5 5 5 5 5 6 6 6 7 8 8 10 10 10 9 10 10 8 6 3 1 1 2 2 1
3 0 1 1 1 0 1 2 2 2 4 3 4 5 6 2 1 3 3 3 3 2 3 5 5 3 3 2 1 2 6 10 9 8 4 2 2 2 3 5 5 4 4 2 2 3 4 5 7 9 11 14 15 15 16 16 16 15 15 14 13 11 10 10 10 10 9 9 9 8 7 8 7 6 7 6 6 7 6 7 8 8 8 10 11 10 10 11 10 9 8 4 2 2 2 2 1
4 1 1 2 0 0 1 1 3 3 4 5 3 5 5 1 2 2 2 4 2 3 6 7 6 4 3 3 2 2 8 10 10 10 7 5 5 4 4 5 6 6 6 5 4 4 4 5 6 7 9 12 14 15 15 16 17 16 15 15 14 12 11 10 10 10 10 10 10 10 9 8 8 7 8 8 8 8 7 8 9 10 10 10 10 10 11 12 11 10 9 6 4 3 2 2 1
4 3 2 2 2 1 1 0 2 4 4 5 3 5 2 1 4 2 1 4 3 5 8 6 4 4 2 2 2 6 11 12 13 12 9 7 6 6 5 6 7 7 8 7 6 5 4 5 5 6 7 9 12 14 15 15 16 17 16 16 15 13 11 10 10 10 11 11 11 11 10 10 9 9 9 9 9 9 8 9 10 11 11 10 11 11 12 13 11 10 10 8 6 5 4 3 2
5 3 1 2 2 1 2 1 1 3 4 4 2 5 1 0 4 3 2 5 6 7 8 6 6 6 4 5 7 10 14 15 14 12 9 8 7 7 6 6 6 7 8 8 9 7 6 6 6 6 6 7 9 12 14 15 16 17 17 16 15 14 13 11 10 10 10 11 11 11 11 11 11 10 10 10 10 10 10 10 10 11 11 11 12 12 13 13 11 9 10 9 8 7 6 5 4
4 1 1 1 2 1 3 4 3 2 3 4 1 4 2 1 3 6 7 8 7 9 10 8 6 6 5 6 9 13 15 15 11 8 7 7 8 8 7 7 7 7 8 9 10 11 10 9 7 7 7 7 7 9 12 14 15 17 17 16 15 14 14 13 11 10 10 10 11 11 11 11 11 11 11 12 11 11 11 11 10 11 11 12 12 12 13 12 10 10 10 8 8 8 7 6 6
2 0 0 1 1 1 3 4 3 1 2 3 1 3 2 2 4 7 9 6 5 10 8 3 1 2 3 5 10 12 11 9 6 5 5 6 8 9 9 8 8 8 9 10 11 12 13 12 10 9 8 8 8 8 9 12 14 15 16 15 15 15 15 13 13 11 10 10 10 10 10 11 12 11 12 12 12 12 12 11 11 11 12 13 13 12 12 12 11 11 10 8 8 8 9 8 7
2 0 0 1 2 1 2 2 2 2 1 1 2 2 2 3 4 6 7 6 5 7 3 3 4 3 3 6 6 6 6 5 4 4 3 2 4 6 8 9 10 10 10 11 12 13 13 13 12 11 10 9 9 9 8 9 11 12 14 16 17 16 15 15 14 14 13 12 11 11 11 11 12 12 14 14 12 12 12 12 12 13 13 14 14 12 12 13 13 12 11 9 8 8 9 9 8
1 1 0 2 2 1 4 4 2 3 3 3 2 3 4 3 3 5 7 10 7 3 3 2 2 2 7 6 2 3 4 5 4 4 3 2 1 1 3 6 8 10 11 12 12 13 14 14 14 13 12 10 10 9 9 8 8 12 14 16 17 15 16 16 15 15 15 13 12 12 12 12 12 13 15 16 14 14 14 14 12 13 15 15 14 12 13 14 14 14 12 10 10 9 9 9 9
1 1 1 4 3 2 4 6 4 4 4 3 2 4 4 1 3 5 5 8 4 2 4 5 5 8 10 5 1 2 3 4 4 3 3 3 2 2 3 3 5 7 9 11 12 14 14 15 15 15 14 12 11 10 9 8 7 10 13 14 15 15 17 17 16 17 16 15 14 14 15 14 13 13 14 15 14 14 15 15 12 13 16 15 13 11 12 13 14 15 13 13 14 12 9 9 9
2 1 2 5 4 2 1 4 4 4 5 4 4 4 3 3 4 4 4 5 4 4 9 9 9 9 6 3 1 2 3 4 4 4 4 3 3 4 5 6 6 7 7 9 12 13 15 16 16 16 15 14 13 11 10 9 6 8 10 12 13 14 17 17 16 16 16 16 14 14 15 16 15 14 14 13 14 14 14 14 12 13 13 13 10 9 10 12 13 12 13 14 14 12 10 9 8
1 1 2 4 5 3 1 3 5 5 5 4 5 5 5 5 3 2 3 4 4 8 8 6 4 4 2 2 2 4 5 6 6 6 6 6 6 7 8 8 8 9 9 10 11 13 14 15 16 16 16 15 14 13 11 9 7 6 7 10 12 13 14 16 16 15 16 15 13 13 13 14 15 15 14 14 15 14 12 11 12 11 10 8 7 7 9 10 10 9 10 11 12 13 13 10 7
2 0 3 4 6 5 4 5 7 8 9 7 8 8 6 5 3 2 2 3 6 4 2 1 2 1 1 2 3 5 6 6 7 8 8 9 10 11 11 11 11 11 10 11 11 12 13 13 14 16 17 16 15 14 12 9 7 7 8 9 11 11 11 11 13 15 15 14 14 15 13 12 14 14 13 12 12 11 9 9 11 11 10 7 5 6 8 8 9 9 10 10 12 15 16 14 9
2 1 2 2 4 6 8 10 12 13 13 12 10 8 6 4 2 3 3 2 4 1 1 2 2 1 1 2 3 3 3 4 5 5 6 8 9 11 11 11 11 10 9 9 10 10 11 12 13 14 16 17 17 15 13 10 8 7 7 9 10 9 9 9 8 11 14 15 17 17 16 16 16 13 10 9 9 8 7 7 8 10 10 9 8 7 8 9 9 9 9 8 11 14 16 16 13
1 0 0 2 5 7 10 12 12 12 12 10 7 5 3 4 5 5 3 1 2 3 4 3 2 3 2 2 1 2 2 2 2 3 4 5 6 7 7 7 8 7 6 6 6 7 8 11 12 14 16 18 17 16 15 12 10 7 6 9 10 8 9 11 8 9 12 14 16 16 15 16 18 16 10 8 9 9 7 7 6 7 9 10 11 9 8 9 9 9 7 7 8 10 11 13 14
2 1 4 6 8 9 11 10 8 9 10 9 7 3 4 6 5 3 3 1 3 4 4 3 2 2 2 3 4 4 4 5 5 5 4 4 3 4 5 6 6 6 6 5 3 3 4 7 11 13 15 17 18 18 16 12 9 7 8 9 10 10 11 13 12 13 12 11 13 14 14 12 14 18 15 11 9 11 12 9 5 6 6 7 10 10 10 9 7 7 5 5 6 7 8 10 12
2 2 6 7 8 10 9 7 5 5 5 6 7 3 4 5 4 3 3 2 4 4 3 2 1 1 3 4 5 5 6 6 6 5 4 3 4 5 6 7 8 9 8 7 5 4 1 2 6 9 11 14 17 18 15 13 11 9 12 12 12 15 16 15 12 13 12 13 14 10 12 13 10 13 17 15 11 12 15 14 10 7 7 8 9 10 11 9 6 6 5 5 6 8 8 9 10
1 2 5 6 7 6 2 0 0 0 1 2 3 4 4 5 3 4 2 2 4 2 2 1 1 1 2 4 5 5 5 6 5 5 5 6 6 7 7 8 10 10 11 10 9 7 5 3 2 5 8 12 17 17 15 16 16 14 14 15 15 16 18 15 10 10 10 11 13 10 11 14 11 9 11 12 11 10 11 14 13 9 9 10 10 10 9 8 6 6 7 7 7 9 10 10 11
1 0 3 6 7 3 2 1 1 2 2 3 2 4 3 7 4 3 1 3 4 1 1 1 1 1 1 3 4 5 5 5 5 6 6 7 7 7 7 8 9 10 11 10 9 8 7 6 6 8 9 10 13 15 14 16 19 17 14 15 14 13 16 16 11 10 9 8 10 12 12 12 12 10 8 9 9 7 6 8 11 9 9 10 9 10 9 8 8 8 8 8 9 11 12 12 14
1 1 1 3 4 1 4 1 3 3 1 3 4 5 1 8 4 3 3 3 5 2 1 2 2 2 1 2 2 3 4 4 5 6 6 6 6 6 6 7 8 8 9 9 8 8 7 7 8 11 13 13 12 13 13 13 16 17 15 14 13 11 11 13 13 11 10 9 8 10 10 10 11 9 8 8 8 7 6 6 7 8 8 8 8 9 10 10 11 12 13 12 12 13 13 13 16
0 3 2 2 2 2 2 3 2 2 1 2 4 5 1 8 6 3 3 2 4 3 2 3 3 2 2 1 1 2 3 4 4 4 4 5 5 4 5 6 7 7 8 8 8 8 7 7 8 11 14 16 14 13 14 12 12 13 13 12 10 8 6 5 7 7 7 7 6 6 7 7 8 8 8 8 7 7 6 6 8 7 7 8 8 8 9 10 11 12 13 13 13 14 14 15 17
2 3 4 2 3 3 1 3 2 2 1 1 2 5 4 5 6 3 3 3 3 4 4 4 3 3 3 3 3 3 4 4 4 4 4 4 4 3 4 5 6 7 7 8 7 7 8 7 7 10 13 15 14 13 15 14 12 12 11 9 7 5 3 4 4 3 3 3 2 0 1 2 3 4 5 6 6 5 5 4 5 5 5 5 5 6 8 9 10 11 12 12 13 14 14 15 16
2 2 3 3 3 4 2 2 2 2 2 3 2 5 8 3 7 3 3 4 3 4 5 3 3 3 4 4 5 5 5 5 5 5 5 4 4 4 4 5 6 7 7 8 8 8 9 10 9 10 11 12 12 13 14 13 12 11 9 8 7 6 7 8 8 6 6 8 7 5 5 5 4 3 2 2 2 3 3 3 2 2 3 4 4 6 8 10 12 13 14 14 14 14 15 16 17
3 2 3 3 3 5 5 2 1 1 2 4 3 6 10 5 7 6 4 4 3 3 4 3 3 3 4 5 5 6 6 6 6 6 5 5 4 4 4 4 5 7 8 9 9 10 12 13 12 12 13 12 10 10 10 11 10 9 9 9 8 8 9 10 8 6 6 7 6 6 5 4 5 4 3 2 1 1 1 2 2 3 4 5 7 9 11 12 13 14 14 15 16 16 17 18 19
4 3 4 5 5 6 5 2 2 0 4 7 8 9 11 11 3 7 4 4 3 3 3 2 2 3 3 5 5 6 6 6 6 6 5 4 4 4 4 4 6 7 9 11 11 13 14 15 14 15 16 16 13 11 10 10 10 9 8 7 7 8 6 4 4 2 3 4 5 5 3 3 3 2 1 0 2 3 4 4 5 5 6 8 10 12 13 13 12 13 13 14 15 17 18 19 21
1 2 4 6 7 7 5 0 3 1 4 6 8 8 11 13 3 6 4 3 4 3 2 2 2 2 2 4 5 6 7 7 6 5 4 4 4 5 6 7 8 9 11 13 14 15 16 16 17 18 17 16 14 13 11 10 10 9 8 6 6 7 5 3 2 3 4 5 6 5 5 5 5 4 3 2 1 2 3 4 5 5 6 8 9 9 10 9 10 11 12 13 14 16 18 19 20
3 4 5 6 7 7 4 1 2 2 3 5 4 6 11 10 1 5 3 3 3 2 2 2 2 2 2 3 5 6 7 7 6 5 4 5 6 7 8 10 11 12 13 14 16 17 17 18 18 18 16 14 14 13 12 11 10 8 8 8 8 8 7 6 8 9 9 9 8 8 8 9 8 8 8 7 6 5 4 3 3 3 4 5 6 7 8 9 10 10 11 12 13 14 15 16 17
5 4 5 6 5 4 4 2 1 2 3 4 1 5 10 5 4 4 3 3 3 3 2 2 2 2 2 3 5 7 8 7 7 7 7 8 10 10 12 13 14 15 16 16 17 17 17 17 17 16 15 14 14 14 13 12 12 11 11 12 11 11 12 12 13 14 12 12 12 11 12 12 11 11 11 11 11 11 10 10 10 10 9 9 9 9 9 9 10 10 11 11 12 13 14 15 16
5 5 6 7 2 1 5 2 3 2 2 3 3 6 10 3 5 4 4 4 4 4 3 3 4 3 4 6 8 9 9 10 10 11 13 14 15 16 17 18 18 19 19 19 19 18 18 18 18 18 17 17 17 16 16 17 16 16 16 15 14 15 16 15 15 15 14 13 14 14 14 13 13 12 13 13 12 12 12 12 12 11 10 10 9 9 9 9 10 11 12 12 13 14 15 17 18
6 7 8 8 3 5 8 1 1 3 2 1 3 7 8 3 3 3 4 4 4 4 4 4 4 5 7 8 10 12 13 15 16 17 18 18 19 20 21 21 22 22 22 22 22 22 22 22 21 21 21 21 20 19 19 19 18 17 17 16 16 16 17 16 15 16 15 14 14 14 14 14 13 12 12 12 12 12 12 11 11 11 10 10 10 10 11 11 12 13 13 14 15 15 16 17 17
5 8 11 11 9 9 7 1 2 5 3 2 2 6 3 2 3 4 4 4 4 3 4 5 4 5 6 7 10 13 16 19 20 21 21 22 22 22 23 23 24 24 24 24 24 24 23 23 22 22 22 22 21 20 19 17 17 16 15 15 15 15 15 15 15 15 14 13 13 13 13 12 11 11 11 11 11 11 11 11 11 11 11 11 11 12 12 12 13 14 14 15 16 16 16 16 16
5 4 7 10 10 7 5 4 3 4 2 1 1 5 3 1 2 5 5 5 5 4 4 5 5 6 7 8 11 15 18 21 22 24 24 24 24 24 24 24 24 24 24 23 23 23 22 21 21 20 20 20 20 19 17 16 15 15 14 14 13 12 12 13 14 13 13 12 12 12 11 11 10 10 10 10 10 10 11 11 11 11 12 12 12 13 13 14 15 15 16 16 16 16 17 17 18
3 1 2 6 8 7 7 7 6 3 2 1 3 2 4 5 2 4 5 5 5 5 6 6 7 7 8 10 14 17 20 22 24 25 25 24 24 24 24 23 23 22 22 21 21 20 20 19 19 18 18 18 18 18 16 15 14 13 12 10 10 10 10 12 13 12 12 10 9 10 10 9 10 10 10 10 10 10 10 11 11 12 12 12 12 13 13 14 14 15 15 16 16 17 17 18 18
1 2 2 3 4 5 5 5 4 1 2 4 4 4 3 6 2 3 3 4 5 7 8 9 10 10 11 13 15 18 21 23 24 25 24 24 23 23 23 22 22 21 20 20 19 18 18 17 16 16 17 17 17 17 15 13 11 9 8 7 8 10 11 12 12 11 11 9 8 9 9 9 9 9 9 9 10 10 11 11 11 12 12 13 13 13 14 14 14 14 15 16 17 17 18 18 18
3 5 5 6 4 4 3 3 3 2 3 7 6 8 5 5 3 3 2 4 6 8 8 9 12 13 12 14 17 20 21 23 24 24 24 23 23 23 22 22 21 20 19 18 18 17 16 15 15 14 15 16 15 14 12 10 9 8 8 7 8 10 11 11 11 11 10 9 8 8 8 8 8 8 9 9 9 10 10 11 11 12 12 12 13 13 13 13 14 15 15 16 16 16 17 17 18
7 7 5 6 5 4 2 1 1 2 5 5 2 6 5 4 3 4 3 1 4 8 9 9 12 14 15 16 19 21 22 23 24 24 24 23 23 22 22 21 20 19 18 17 16 15 14 14 13 13 14 14 13 12 10 9 9 8 8 9 9 11 12 11 11 10 10 8 8 8 8 8 8 8 9 9 10 10 11 12 12 13 13 13 13 14 14 14 15 15 15 15 16 16 16 17 17
4 3 4 5 3 3 2 2 2 5 5 1 2 1 4 5 3 1 2 1 3 8 10 12 16 17 17 19 22 23 23 24 24 24 24 23 23 22 21 21 20 19 18 16 15 14 13 13 11 11 13 13 12 11 10 10 9 9 9 10 11 12 11 10 9 9 9 8 8 8 8 8 8 9 9 10 11 12 12 13 14 14 15 15 16 16 16 17 17 17 17 17 17 17 17 17 17
2 3 6 5 3 3 3 3 3 5 2 2 2 2 4 6 5 1 3 3 2 4 7 15 21 21 20 22 25 25 25 25 25 25 25 24 23 22 21 20 19 18 17 15 14 13 12 12 10 10 12 13 12 11 10 9 10 10 10 10 11 11 10 8 8 8 8 8 8 8 8 8 9 9 10 11 12 13 14 15 16 16 17 17 17 18 18 18 19 19 19 20 20 20 19 19 19
6 5 6 5 4 3 4 3 2 3 1 2 1 2 3 4 4 1 3 4 1 1 4 13 21 22 24 27 27 27 26 26 26 26 25 24 23 22 21 20 19 17 16 15 14 13 12 12 11 10 12 13 12 11 10 9 10 10 10 10 9 9 7 7 6 7 7 7 7 8 9 10 11 11 12 13 14 15 15 16 17 17 18 18 18 18 19 19 19 20 20 21 21 21 21 21 21
5 2 1 3 3 3 3 3 2 1 2 2 1 2 3 3 0 2 2 2 0 2 5 12 18 21 25 28 28 28 28 27 27 26 25 24 23 22 20 19 18 17 16 14 14 13 12 12 11 11 12 13 12 11 10 9 9 9 8 8 7 7 6 6 6 6 7 7 8 9 10 11 12 13 14 15 15 16 17 18 19 19 19 20 20 20 20 20 21 21 21 21 21 21 21 21 21
2 1 0 3 2 1 1 1 1 2 0 2 3 3 2 1 1 1 1 1 1 2 5 12 16 20 25 27 28 29 29 29 28 27 26 25 23 22 20 19 18 17 15 14 14 13 13 13 13 12 12 12 12 11 10 9 8 8 7 6 6 5 5 5 5 6 7 8 9 10 11 12 13 14 15 16 16 17 18 18 19 20 20 20 21 21 21 22 22 22 22 23 23 22 22 21 21
3 2 4 2 1 1 2 0 2 1 4 3 4 4 2 1 2 3 2 1 3 3 6 11 14 18 23 27 30 32 31 30 30 28 27 25 23 22 20 19 17 16 16 15 14 14 13 13 13 13 13 13 12 11 10 9 8 7 6 5 4 4 4 4 6 7 8 9 10 11 12 13 14 16 17 18 19 19 20 20 20 20 20 20 20 21 21 21 22 22 23 23 24 24 24 23 23
4 4 4 3 1 1 1 2 1 2 5 3 4 7 5 4 3 3 4 5 6 7 8 9 12 17 22 27 32 33 32 31 30 28 26 25 23 22 21 19 17 16 16 15 15 15 14 13 13 13 13 13 13 12 10 9 7 6 5 4 3 3 3 5 6 7 9 10 12 14 15 17 18 19 21 22 23 24 24 24 23 23 23 23 23 23 23 23 22 22 22 22 23 23 24 24 25
1 1 2 2 2 2 2 2 2 3 5 3 3 5 5 6 4 4 7 10 10 10 9 9 14 20 23 27 33 34 33 33 31 29 28 26 25 23 21 19 18 17 17 16 16 16 15 15 14 14 14 14 13 11 9 8 7 5 4 3 2 2 4 5 7 9 11 13 14 16 17 18 19 20 22 24 25 26 26 27 27 27 27 27 27 27 27 27 26 26 26 25 25 24 24 24 24
2 1 2 0 2 2 2 2 1 2 4 3 2 3 4 6 6 9 12 12 12 12 10 12 17 22 25 30 36 37 36 35 33 31 30 28 26 23 21 20 20 19 18 17 17 17 17 17 17 16 15 14 12 10 9 7 6 5 3 2 1 3 5 7 9 10 12 13 15 16 17 19 20 21 23 25 27 28 28 28 28 28 28 28 28 29 29 29 29 29 29 29 29 28 28 28 27
4 5 5 3 1 0 1 1 1 1 3 3 4 4 3 3 2 5 6 5 8 12 11 12 17 23 29 34 38 40 40 38 35 33 32 29 27 25 23 22 21 20 19 18 18 18 19 19 18 17 16 14 12 10 8 7 6 5 3 1 2 5 6 8 10 11 13 14 16 17 19 20 22 23 25 27 29 30 30 30 30 30 30 30 30 30 30 30 30 29 29 29 29 29 30 30 31
3 6 7 7 5 3 3 4 2 0 3 2 3 5 1 3 2 2 2 3 2 8 9 10 16 23 29 34 38 40 40 39 36 35 33 30 28 27 25 23 22 21 20 20 20 20 20 20 19 18 16 14 12 10 8 7 5 4 1 2 4 6 7 9 11 12 14 15 17 18 20 21 23 25 27 29 31 32 32 32 32 32 32 32 32 32 32 31 31 30 29 29 29 29 30 31 32
Wind_Direction
26 28 40 56 66 88 71 337 105 67 39 92 74 101 91 4 318 306 96 123 165 75 340 311 278 220 243 306 321 315 291 296 346 356 39 47 356 6 6 358 358 10 121 180 193 196 196 198 196 192 185 179 182 186 192 202 212 222 238 246 257 273 282 261 156 152 142 133 115 104 89 79 69 67 94 115 118 132 161 214 234 11 27 26 31 35 36 24 353 337 336 332 333 332 329 324 324
27 34 50 68 64 94 82 333 130 119 130 106 80 49 71 223 244 39 52 34 32 11 325 306 256 234 262 291 290 285 261 263 318 356 26 26 13 15 15 23 17 28 120 171 190 197 198 200 199 198 190 183 187 192 197 206 218 227 240 254 269 278 281 231 159 153 144 134 116 104 88 74 64 61 90 120 131 148 174 203 218 233 327 6 11 10 7 344 325 323 325 324 325 325 323 317 314
25 29 42 74 62 77 122 325 138 141 126 104 99 90 52 138 71 41 33 11 347 310 311 311 259 250 262 272 280 291 41 18 335 26 38 40 29 12 26 42 42 66 120 166 185 196 200 202 201 201 195 190 190 194 203 209 222 229 237 253 263 270 278 209 165 154 147 134 114 101 83 71 68 71 93 115 129 152 169 165 192 291 348 4 6 351 336 322 315 317 320 318 317 318 317 313 310
29 26 44 102 90 68 77 359 101 147 117 109 110 108 331 57 54 37 15 348 327 302 317 306 261 246 272 302 345 309 33 36 38 66 56 42 43 26 40 55 62 81 120 163 178 191 201 205 203 203 200 198 194 196 205 210 224 231 235 243 248 257 261 213 177 159 148 133 112 96 75 67 70 79 96 110 126 139 127 88 65 33 21 15 351 328 321 315 313 314 314 313 311 313 314 311 308
34 34 60 131 155 58 47 93 108 183 99 108 114 106 82 40 31 11 352 351 7 56 23 305 291 315 286 321 324 318 35 38 39 55 60 26 33 47 51 61 70 87 113 161 178 187 199 204 205 206 205 205 201 200 208 213 225 233 231 229 233 245 242 220 193 171 149 129 108 92 76 65 65 77 101 127 136 127 101 72 65 51 7 330 314 313 315 317 317 317 317 315 311 312 316 312 308
38 49 71 103 100 84 167 128 130 105 72 28 100 103 69 39 1 340 333 20 50 47 14 322 320 325 274 313 310 344 7 355 14 25 33 1 4 59 67 71 71 81 108 162 179 187 196 201 205 207 207 210 206 204 210 215 224 231 225 219 219 230 236 221 204 191 155 130 118 97 84 68 59 73 147 154 141 113 91 47 21 342 305 297 303 311 320 325 327 329 329 323 315 317 321 317 316
31 48 67 95 78 38 186 102 111 105 73 353 51 79 48 33 346 333 342 83 65 41 10 347 326 303 241 347 333 36 360 359 13 355 329 304 288 82 92 82 75 77 103 154 175 190 195 199 206 209 207 210 211 207 209 214 219 224 221 219 217 220 229 222 215 209 178 150 142 120 99 76 46 345 214 170 136 112 104 12 337 303 288 293 306 318 329 335 335 336 334 327 323 326 330 338 351
26 49 69 111 64 16 105 102 97 74 82 341 346 11 14 5 330 328 9 22 19 12 344 348 328 301 33 355 349 56 31 44 25 2 343 260 212 166 125 95 86 76 87 143 174 191 195 199 207 211 210 210 213 211 208 213 216 221 221 224 222 219 222 219 219 215 193 168 160 146 119 62 339 298 231 193 166 162 196 289 311 300 297 300 310 319 330 337 338 337 334 331 336 341 345 13 27
26 59 96 108 93 95 110 117 99 58 92 101 299 324 334 328 306 301 348 22 1 339 326 337 316 326 5 349 35 49 47 56 38 29 24 100 184 182 146 114 99 79 74 129 170 190 198 200 206 212 214 212 213 212 210 212 216 222 222 223 227 223 220 219 220 216 202 179 180 196 197 270 260 277 243 212 215 218 228 249 272 285 292 297 305 314 326 336 341 337 332 338 350 6 3 28 35
25 47 84 116 118 140 136 141 116 106 78 37 319 340 319 297 264 272 309 356 360 329 330 332 250 334 340 340 66 54 55 48 38 38 33 41 171 194 163 132 111 89 74 109 167 186 203 203 207 212 215 216 215 211 209 213 215 221 222 219 225 226 221 223 223 215 208 193 195 210 223 258 242 263 261 235 239 235 244 258 265 271 275 281 293 305 317 332 343 337 333 346 356 35 31 43 49
29 42 57 162 155 175 159 147 128 95 76 60 86 30 360 339 254 240 302 318 352 319 342 354 185 324 316 359 74 84 55 26 29 39 33 30 19 221 203 169 136 112 92 110 172 183 199 203 208 211 215 218 219 213 209 214 213 216 222 219 221 227 223 223 223 217 214 207 204 211 223 241 240 256 259 250 250 245 257 270 274 274 273 278 286 296 306 324 338 336 333 346 347 95 102 82 62
56 32 336 190 124 154 105 135 123 89 112 117 97 54 7 13 282 348 332 326 344 301 36 3 343 328 296 182 96 123 9 354 7 13 16 16 1 277 239 220 216 214 194 167 180 187 194 199 205 210 215 218 221 216 211 216 216 215 219 221 224 225 223 223 223 218 217 214 210 209 215 223 231 250 250 248 250 252 264 277 281 281 281 282 285 291 299 314 331 336 329 330 309 195 141 112 83
70 58 304 135 37 37 103 132 124 112 139 115 76 22 354 16 7 10 338 324 331 318 36 349 326 314 280 297 112 122 331 339 343 338 333 282 253 260 252 241 241 239 233 225 212 205 200 199 202 208 213 217 221 219 215 217 217 218 220 223 228 227 224 224 222 220 220 221 217 214 219 226 229 243 244 245 257 265 268 274 278 280 285 284 286 292 300 308 323 336 327 314 288 244 176 139 115
80 109 5 110 37 151 142 142 153 181 150 105 64 4 350 62 30 19 319 329 337 326 336 326 313 280 271 281 151 25 326 325 321 314 309 272 232 231 237 241 244 247 245 233 232 226 217 213 206 208 212 216 219 221 220 220 218 219 224 227 231 231 226 224 223 223 222 223 224 221 223 229 233 242 242 244 262 271 264 265 274 280 284 285 291 294 299 305 317 336 330 313 290 269 230 182 152
80 102 64 122 137 163 193 331 153 199 146 111 63 12 360 123 21 15 289 326 312 313 320 316 301 278 316 332 334 334 312 307 307 302 295 269 233 223 219 227 231 238 245 239 239 237 237 235 226 221 213 216 220 221 219 222 224 220 223 230 233 234 231 229 226 226 226 223 224 224 224 227 233 240 239 240 253 263 264 267 276 283 286 288 296 298 299 302 313 335 331 315 298 281 261 228 200
65 95 111 127 144 198 184 150 168 200 137 124 49 25 3 213 354 324 279 298 291 303 313 304 283 280 321 325 307 308 300 301 302 296 285 260 236 222 210 214 219 224 231 234 235 236 241 241 242 240 226 221 224 226 220 219 226 223 221 228 232 233 234 235 233 231 228 225 222 222 225 227 233 241 241 240 246 256 264 272 280 283 286 291 299 301 299 300 310 332 331 318 307 293 277 254 232
52 77 187 120 154 212 175 178 176 140 116 139 58 16 321 309 326 315 311 291 279 298 311 306 277 268 288 295 297 300 301 305 304 296 278 250 236 227 220 214 215 218 219 223 225 227 231 232 237 240 238 230 224 231 227 218 222 225 221 224 230 231 234 238 241 241 234 231 228 225 225 226 231 242 248 249 255 258 263 274 283 283 284 292 301 303 303 303 309 327 328 320 315 300 287 273 253
35 53 227 116 159 138 160 178 162 104 85 132 3 343 314 325 318 323 317 280 270 300 314 346 65 190 255 290 299 304 312 320 322 310 286 251 234 229 231 227 224 221 218 220 220 223 227 229 232 234 239 237 231 232 234 224 219 222 221 221 226 229 234 238 242 243 240 240 239 236 230 226 227 236 246 248 255 258 261 272 280 282 285 294 301 306 311 309 310 322 321 317 322 308 292 283 271
51 111 309 128 140 100 162 170 148 191 15 11 311 316 293 312 314 324 316 294 297 307 310 106 104 125 279 308 308 316 347 1 7 348 328 288 244 231 234 236 236 233 228 226 222 224 226 229 231 233 236 236 238 235 239 235 216 216 218 219 223 226 231 233 238 239 238 240 242 244 236 231 228 232 241 241 247 253 257 267 275 278 283 293 302 311 316 312 314 319 314 310 321 316 298 286 279
67 222 315 118 142 175 205 206 188 228 294 311 295 295 283 289 298 306 310 303 298 316 1 26 81 2 314 328 345 351 20 24 25 28 24 19 3 263 246 241 243 242 239 236 230 228 226 227 228 229 233 232 235 234 240 241 212 208 214 217 219 225 234 233 235 238 239 240 241 244 239 235 233 235 243 243 246 253 259 267 273 277 280 289 302 314 315 317 321 321 315 310 319 322 305 289 280
147 251 39 108 157 224 201 208 219 234 259 271 281 288 275 239 296 294 290 300 304 62 360 324 313 311 314 333 26 2 12 359 357 4 5 360 350 343 320 295 269 256 247 241 236 233 228 225 225 225 227 226 229 229 234 239 213 206 214 217 214 222 236 236 236 239 240 243 246 248 244 238 233 236 246 249 249 251 261 269 267 270 280 290 301 309 312 323 330 328 322 316 320 324 316 300 286
155 128 63 119 166 234 150 202 237 238 247 254 254 273 287 276 284 266 248 289 341 341 309 293 291 293 301 331 357 341 321 319 332 330 331 326 310 307 306 303 294 282 265 251 242 238 235 230 226 223 223 221 222 221 223 230 218 203 207 212 213 222 231 231 235 241 241 246 253 255 253 247 240 237 244 248 249 251 259 269 268 264 277 293 301 310 316 329 338 334 328 324 325 327 325 316 297
251 129 139 169 197 251 290 241 263 256 246 246 254 278 286 272 264 194 216 268 300 307 306 298 286 278 298 341 320 311 312 319 329 328 329 330 323 318 312 306 299 292 282 269 254 244 240 235 231 226 223 219 216 214 213 218 216 195 191 203 212 222 229 227 231 238 240 243 248 250 255 253 245 242 244 246 248 251 252 258 262 257 268 290 304 319 320 329 344 342 335 333 335 337 334 328 312
281 182 152 200 216 244 273 271 277 271 260 262 274 281 270 261 264 165 163 244 265 290 339 46 87 70 337 302 303 308 319 325 326 328 332 334 333 332 331 325 316 308 299 286 272 257 244 237 234 228 224 219 213 207 204 208 204 184 184 198 207 217 227 227 232 240 243 243 242 247 251 247 243 242 243 248 251 251 248 249 253 256 267 277 287 313 317 325 338 338 338 332 331 337 335 332 329
237 274 136 208 229 251 280 280 281 278 274 277 275 270 260 254 231 136 107 238 244 214 124 119 115 132 248 263 288 304 316 320 321 328 334 338 337 336 335 332 327 320 310 294 283 269 248 236 231 227 223 218 213 202 193 197 190 179 180 186 199 214 220 220 233 242 246 246 243 245 246 244 242 239 238 243 249 252 263 265 257 260 267 259 257 293 309 312 320 325 329 317 317 327 326 329 332
157 322 184 266 265 278 288 281 279 277 274 277 267 254 223 172 149 112 69 232 193 158 172 158 164 223 252 296 346 31 33 21 358 356 355 353 346 339 340 341 338 333 326 310 293 275 250 233 225 223 219 214 210 197 185 187 180 175 172 176 202 219 211 212 219 223 235 242 242 244 248 251 244 234 232 238 247 258 271 271 257 254 261 260 258 274 290 294 307 313 310 303 315 324 321 325 327
86 10 290 273 280 287 284 276 274 273 267 258 252 248 130 163 175 106 67 131 154 157 178 179 205 258 318 2 25 33 35 37 34 34 27 5 353 357 8 16 14 12 10 1 334 297 250 230 221 220 217 210 206 193 180 175 161 161 163 166 203 217 206 211 217 217 224 233 239 246 248 251 241 229 226 233 251 260 257 249 237 244 251 258 253 256 270 274 290 302 299 303 313 314 312 316 317
77 328 287 266 279 283 277 275 272 269 262 240 236 226 126 181 203 82 59 132 159 177 188 191 247 317 5 18 26 27 26 28 29 30 28 20 17 20 29 36 34 35 35 34 37 42 43 218 216 216 209 203 201 190 173 159 148 164 177 177 198 210 209 216 224 221 220 229 234 239 240 239 234 231 230 232 244 254 253 240 226 244 252 247 240 249 267 261 269 301 292 285 288 291 300 307 308
359 345 300 281 280 277 283 333 190 297 258 191 222 229 162 162 143 71 24 162 151 195 218 184 271 7 28 28 26 27 30 30 31 25 29 35 32 29 35 41 40 40 42 41 45 51 58 84 165 180 183 194 196 184 168 161 162 176 187 189 198 207 210 211 218 222 218 225 226 219 232 237 232 240 239 230 235 247 255 239 229 251 259 248 246 253 260 252 270 299 284 284 290 290 297 304 306
265 82 310 299 286 261 88 62 305 322 260 180 215 263 171 136 113 43 25 180 177 229 217 166 156 94 28 25 23 25 34 36 40 41 43 43 36 30 32 41 44 43 46 46 49 56 63 80 111 130 148 174 183 174 165 164 168 178 185 189 199 210 216 215 218 227 223 217 219 222 235 243 236 240 240 223 228 241 245 228 227 248 251 241 243 243 237 240 258 267 267 283 289 289 298 303 305
296 256 234 289 295 192 118 57 306 297 229 177 211 270 212 141 133 28 44 167 193 209 162 144 139 125 74 34 28 24 37 41 49 55 57 53 42 32 28 39 46 48 52 51 53 59 68 82 108 130 143 152 161 164 160 162 172 179 186 194 207 216 220 225 228 228 222 215 219 226 232 240 235 229 226 218 223 235 235 232 241 256 256 251 250 243 238 242 252 260 270 281 282 287 293 293 297
55 272 237 183 270 250 127 70 338 278 97 141 221 266 262 144 135 33 46 143 175 177 148 133 134 125 121 93 70 62 63 66 73 79 79 72 58 41 35 41 49 56 59 59 62 67 76 88 107 129 145 154 162 164 156 159 170 175 186 197 201 203 204 214 222 221 218 216 225 233 227 229 227 219 215 214 221 230 232 251 262 261 263 269 267 261 261 261 268 279 288 293 293 294 292 288 295
160 246 264 224 237 271 310 87 30 322 105 143 242 272 283 142 129 51 71 140 167 151 135 128 132 128 129 130 118 111 109 112 116 113 104 93 84 68 56 56 60 64 67 70 76 81 89 97 112 127 141 155 164 166 163 164 165 166 181 188 172 161 160 136 111 106 122 113 105 189 181 172 204 220 221 221 238 240 225 249 263 250 260 282 287 287 290 292 296 299 300 299 295 292 289 288 291
188 191 253 256 238 263 278 140 93 2 240 226 212 251 273 174 134 101 93 141 156 135 128 125 123 123 127 130 131 133 136 140 139 128 115 103 93 81 67 63 67 72 79 83 87 96 101 103 111 120 126 139 152 160 167 170 171 172 163 146 139 129 112 109 104 96 95 93 87 79 79 88 90 92 122 166 227 231 213 227 256 270 287 301 301 297 297 296 295 293 293 293 291 289 288 287 286
268 221 242 255 228 237 260 261 113 49 249 240 222 236 266 245 142 110 95 133 144 131 126 122 114 116 126 128 135 139 141 144 137 124 114 107 95 86 76 71 75 80 87 92 95 102 107 110 114 117 117 118 123 134 142 146 154 161 149 136 137 129 107 99 100 98 92 89 89 82 78 81 79 75 71 70 32 339 231 219 225 256 274 282 288 291 291 289 287 288 291 293 295 296 297 297 297
293 261 261 263 251 243 249 268 85 9 265 250 249 253 265 264 186 109 97 110 118 130 121 112 107 106 118 124 133 137 138 138 130 125 118 113 110 106 108 105 100 99 99 100 103 106 108 112 116 114 114 114 111 112 116 126 129 127 135 145 138 128 121 112 102 91 78 72 76 80 79 77 72 64 55 297 275 276 266 259 255 259 267 273 280 283 286 289 290 293 299 302 305 306 306 307 307
274 254 254 253 255 258 256 238 100 98 278 255 249 258 263 264 252 98 111 129 117 126 121 101 94 96 105 119 133 137 137 135 129 130 127 123 126 123 123 121 116 113 110 108 108 109 109 111 113 108 107 112 115 115 117 126 128 124 132 142 136 128 129 141 124 95 77 68 68 72 67 63 60 59 63 55 315 262 260 262 268 275 279 280 284 289 297 307 312 316 319 320 321 318 315 313 311
233 249 254 251 246 256 270 270 114 119 265 260 239 258 262 256 211 88 121 158 122 98 116 105 85 97 105 113 134 140 134 133 131 132 130 127 130 129 127 124 122 117 114 112 110 108 109 110 110 107 107 111 115 116 119 125 129 136 141 135 126 121 116 111 101 90 81 77 75 71 66 62 58 58 56 53 58 64 63 59 40 23 12 358 352 348 346 344 342 343 341 340 339 334 330 324 322
232 237 254 258 246 267 273 237 133 153 234 263 278 279 270 246 114 87 99 121 102 86 108 122 114 115 121 127 135 137 135 135 137 135 129 124 122 124 126 125 121 118 114 112 110 110 112 111 110 111 114 115 115 117 120 120 119 118 116 114 114 113 107 99 92 86 81 79 78 74 70 65 60 58 56 54 56 58 58 56 52 46 40 34 29 21 13 4 360 359 357 357 354 351 348 343 343
224 222 243 251 215 270 262 194 115 172 228 294 317 292 274 223 123 102 88 98 106 102 112 133 147 152 150 153 148 144 144 142 140 135 130 125 123 122 123 121 117 115 113 111 111 112 112 111 112 112 112 111 110 110 108 105 104 103 104 107 110 105 98 94 91 89 85 82 79 75 70 65 60 58 56 52 49 48 47 46 44 42 37 35 31 22 15 9 6 4 2 3 359 358 357 354 354
218 218 237 251 232 234 248 275 49 220 203 258 277 281 270 218 173 149 113 124 126 120 139 143 157 162 153 154 155 153 148 142 136 133 129 125 123 121 118 116 114 114 112 111 111 110 109 108 108 107 105 103 102 100 98 98 98 100 102 102 99 94 93 95 94 91 89 84 79 74 68 64 58 54 51 46 42 38 36 34 32 29 25 22 16 11 9 6 4 2 1 1 1 2 3 1 359
235 217 226 241 248 242 238 229 312 260 229 163 251 269 250 150 185 170 145 161 149 148 170 160 157 160 154 153 155 152 145 140 135 131 129 125 122 119 115 114 113 111 109 108 107 105 104 103 102 100 99 97 96 95 94 95 95 95 94 94 96 97 99 97 92 88 85 79 77 73 68 63 55 50 46 40 36 31 28 26 22 18 15 13 12 10 7 4 3 1 1 2 2 3 3 2 359
261 219 213 226 237 238 221 193 206 258 273 100 229 267 264 221 190 148 154 174 158 163 180 173 173 168 168 165 157 151 143 138 134 131 128 125 122 118 116 114 112 109 107 105 104 103 101 101 100 99 98 97 95 95 94 94 94 96 97 99 101 101 99 97 90 85 81 77 75 72 67 61 54 48 43 39 34 29 25 23 19 16 13 11 11 7 4 3 2 0 360 359 357 357 356 355 354
252 83 179 202 209 210 201 197 208 260 325 192 193 239 278 270 251 119 153 171 163 178 185 181 182 177 174 170 161 153 145 139 135 132 129 126 123 120 117 116 113 111 109 108 107 105 104 104 104 104 103 101 99 98 98 98 98 102 104 105 105 103 101 100 95 89 85 82 77 73 67 62 55 48 43 39 34 29 25 20 18 15 11 8 5 2 1 0 358 355 353 351 349 349 349 350 349
271 78 119 155 173 185 178 191 216 268 310 248 199 153 255 259 213 114 157 197 201 190 188 187 183 179 176 172 164 155 146 141 137 134 132 129 126 124 122 119 116 114 113 112 111 109 109 109 108 108 106 104 103 105 108 108 109 110 108 106 108 108 105 102 100 97 92 87 81 77 71 64 57 48 42 36 28 24 19 15 12 7 5 4 1 359 357 354 350 346 345 344 345 345 344 344 344
137 125 105 95 90 101 137 198 194 141 240 254 206 169 227 265 204 170 176 232 221 187 184 187 179 179 179 174 167 157 149 145 141 138 136 133 131 129 127 124 120 119 118 117 116 115 115 115 115 115 113 112 114 118 123 123 122 119 113 108 104 106 106 106 106 102 95 90 84 79 71 62 55 44 35 27 18 13 8 4 0 357 356 354 352 350 347 344 342 341 340 340 340 340 339 339 339
141 145 115 99 92 97 110 161 148 198 233 251 194 175 224 267 223 198 176 230 200 169 171 178 177 182 182 177 170 161 155 150 146 144 142 139 137 134 131 129 127 127 126 125 125 125 125 125 128 130 126 126 128 130 134 133 128 120 114 109 103 104 106 109 110 105 98 92 81 73 63 52 43 33 24 16 8 4 1 357 354 352 349 347 345 343 341 340 339 337 337 335 334 333 333 334 333
157 169 144 131 120 140 161 144 175 241 228 145 56 148 220 233 232 163 131 126 183 171 169 172 179 184 182 179 174 166 160 156 153 150 148 145 142 139 137 137 136 135 134 135 134 134 134 134 139 142 136 134 134 134 135 132 126 118 112 109 107 108 111 111 110 104 96 84 70 61 51 40 31 22 14 6 1 358 355 352 350 348 346 345 344 343 342 341 339 337 336 334 333 333 331 330 329
210 180 165 179 172 177 216 187 194 244 223 81 53 158 212 237 249 237 146 152 188 185 173 174 177 180 180 180 176 169 165 162 160 157 154 151 148 146 145 144 143 142 142 143 143 142 143 143 148 150 140 137 137 136 136 131 124 118 114 113 111 112 112 106 98 90 81 69 60 49 37 29 20 12 6 1 357 355 351 348 346 345 344 344 343 342 341 339 338 337 335 334 334 333 331 331 330
198 182 176 197 182 194 225 196 228 265 169 71 26 190 215 242 259 265 129 120 132 185 179 178 176 176 179 180 177 172 169 168 166 163 160 157 154 152 152 151 150 150 150 151 151 152 153 153 157 160 148 143 143 141 139 136 129 122 118 115 111 108 101 91 82 73 64 54 44 32 22 17 10 4 1 357 354 351 347 344 343 341 340 339 338 336 335 335 334 333 332 331 330 329 329 328 328
192 180 194 224 199 227 238 204 245 285 104 116 157 214 212 193 124 19 45 57 82 217 195 184 179 177 179 180 179 176 175 175 172 169 165 162 160 158 157 157 157 157 158 160 161 162 164 163 164 167 158 150 150 148 146 144 136 128 123 116 110 103 91 78 66 55 44 32 24 17 11 7 2 358 355 351 349 346 343 341 339 337 336 334 333 331 331 330 329 329 327 326 325 325 324 324 323
167 64 236 252 245 234 291 338 354 44 351 201 186 235 251 167 118 84 40 17 178 208 199 188 184 182 182 183 184 182 181 180 178 175 171 167 165 164 163 164 164 164 165 169 171 171 172 172 169 171 166 159 158 157 153 150 141 131 124 116 107 96 78 61 45 33 25 17 12 6 2 359 355 353 349 346 343 340 338 336 333 332 330 329 328 327 327 327 326 325 324 323 322 321 321 321 320
138 165 191 209 338 64 130 182 71 74 268 235 173 225 233 144 193 148 125 205 192 197 198 191 188 185 187 190 190 188 186 186 184 180 175 171 169 169 170 171 170 172 174 176 177 177 177 177 176 176 173 169 166 162 158 149 139 132 124 115 101 82 59 40 27 18 12 6 2 358 355 353 351 349 346 344 342 339 336 334 331 330 329 327 327 325 324 323 323 322 321 321 320 320 320 320 319
138 188 181 134 359 344 198 250 143 176 255 254 178 219 209 181 206 141 148 201 208 203 194 185 186 187 193 197 196 192 191 190 189 184 178 175 174 175 176 175 176 179 181 182 181 180 180 181 181 183 181 177 171 165 160 150 141 137 128 115 91 64 39 22 14 7 2 359 356 354 352 351 349 348 346 344 342 339 336 334 332 331 329 328 327 326 324 323 321 319 318 317 316 316 315 315 316
52 183 140 114 218 195 161 234 241 211 252 267 192 211 217 205 194 157 184 204 204 196 185 182 191 193 196 200 199 196 195 195 193 187 182 180 180 180 179 180 182 185 186 187 186 184 184 184 185 187 186 181 176 169 163 155 150 146 134 117 84 38 16 7 2 359 358 356 353 351 349 347 346 343 342 340 338 336 333 332 330 328 327 326 324 323 322 321 319 317 316 315 314 313 311 310 310
35 111 140 36 270 221 164 180 231 227 251 274 232 204 212 209 191 178 192 201 190 182 184 194 197 195 196 200 199 198 198 198 195 190 187 185 183 182 183 186 189 190 191 191 191 190 190 190 190 189 188 185 180 175 170 166 160 157 149 128 57 11 1 357 356 356 355 352 349 348 345 342 340 338 337 335 334 332 330 328 327 325 324 322 321 320 319 318 317 316 315 314 313 313 312 312 312
157 172 173 174 168 358 254 201 108 257 250 255 267 268 208 165 177 186 188 197 185 182 188 194 194 196 199 201 200 199 200 200 195 192 190 187 185 186 188 191 193 194 194 194 195 195 195 195 195 193 192 190 187 183 179 175 170 168 165 103 14 1 357 355 356 355 352 347 343 340 337 334 333 332 331 331 330 329 328 326 325 323 322 321 320 319 318 317 316 315 314 312 311 312 312 313 313
176 184 181 181 172 156 209 218 156 280 267 245 265 283 247 119 33 350 21 360 228 195 191 189 193 199 202 202 203 203 202 201 197 195 193 189 188 190 192 194 196 197 198 198 198 198 198 198 197 195 194 194 193 191 186 182 181 181 163 24 7 359 355 353 350 346 341 337 333 330 328 328 327 327 327 328 328 328 327 326 324 323 322 321 320 319 318 317 315 314 312 311 311 311 311 311 311